owner,sensor,date,latitude,longitude,vertical_datum,sea_water_temperature,qcFlag 
TABS,ioos:station:wmo:42043:1,2018-01-01T16:00:00Z,28.9818,-94.9186,-2.0,15.2,11111222 
TABS,ioos:station:wmo:42043:1,2018-01-01T16:30:00Z,28.9818,-94.9186,-2.0,15.2,11111222 
TABS,ioos:station:wmo:42043:1,2018-01-01T17:00:00Z,28.9818,-94.9186,-2.0,15.2,11111222 
TABS,ioos:station:wmo:42043:1,2018-01-01T17:30:00Z,28.9818,-94.9186,-2.0,15.2,11111222 
TABS,ioos:station:wmo:42043:1,2018-01-01T18:00:00Z,28.9818,-94.9186,-2.0,15.2,11111222 
TABS,ioos:station:wmo:42043:1,2018-01-01T18:30:00Z,28.9818,-94.9186,-2.0,15.2,11111222 
TABS,ioos:station:wmo:42043:1,2018-01-01T19:00:00Z,28.9818,-94.9186,-2.0,15.1,11111222 
TABS,ioos:station:wmo:42043:1,2018-01-01T19:30:00Z,28.9818,-94.9186,-2.0,15.1,11111222 
TABS,ioos:station:wmo:42043:1,2018-01-01T20:00:00Z,28.9818,-94.9186,-2.0,15.1,11111222 
TABS,ioos:station:wmo:42043:1,2018-01-01T20:30:00Z,28.9818,-94.9186,-2.0,15.1,11111222 
TABS,ioos:station:wmo:42043:1,2018-01-01T21:00:00Z,28.9818,-94.9186,-2.0,15.1,11111222 
TABS,ioos:station:wmo:42043:1,2018-01-01T21:30:00Z,28.9818,-94.9186,-2.0,15.1,11111222 
TABS,ioos:station:wmo:42043:1,2018-01-01T22:00:00Z,28.9818,-94.9186,-2.0,15.2,11111222 
TABS,ioos:station:wmo:42043:1,2018-01-01T22:30:00Z,28.9818,-94.9186,-2.0,15.2,11111222 
TABS,ioos:station:wmo:42043:1,2018-01-01T23:00:00Z,28.9818,-94.9186,-2.0,15.2,11111222 
TABS,ioos:station:wmo:42043:1,2018-01-03T14:30:00Z,28.9818,-94.9186,-2.0,14.7,11111222 
TABS,ioos:station:wmo:42043:1,2018-01-03T15:00:00Z,28.9818,-94.9186,-2.0,14.7,11111222 
TABS,ioos:station:wmo:42043:1,2018-01-03T15:30:00Z,28.9818,-94.9186,-2.0,14.7,11111222 
TABS,ioos:station:wmo:42043:1,2018-01-03T16:00:00Z,28.9818,-94.9186,-2.0,14.7,11111222 
TABS,ioos:station:wmo:42043:1,2018-01-03T16:30:00Z,28.9818,-94.9186,-2.0,14.7,11111222 
TABS,ioos:station:wmo:42043:1,2018-01-03T17:00:00Z,28.9818,-94.9186,-2.0,14.7,11111222 
TABS,ioos:station:wmo:42043:1,2018-01-03T17:30:00Z,28.9818,-94.9186,-2.0,14.7,11111222 
TABS,ioos:station:wmo:42043:1,2018-01-03T18:00:00Z,28.9818,-94.9186,-2.0,14.6,11111222 
TABS,ioos:station:wmo:42043:1,2018-01-03T18:30:00Z,28.9818,-94.9186,-2.0,14.6,11111222 
TABS,ioos:station:wmo:42043:1,2018-01-03T19:00:00Z,28.9818,-94.9186,-2.0,14.6,11111222 
TABS,ioos:station:wmo:42043:1,2018-01-03T19:30:00Z,28.9818,-94.9186,-2.0,14.6,11111222 
TABS,ioos:station:wmo:42043:1,2018-01-03T20:00:00Z,28.9818,-94.9186,-2.0,14.6,11111222 
TABS,ioos:station:wmo:42043:1,2018-01-03T20:30:00Z,28.9818,-94.9186,-2.0,14.6,11111222 
TABS,ioos:station:wmo:42043:1,2018-01-03T21:00:00Z,28.9818,-94.9186,-2.0,14.6,11111222 
TABS,ioos:station:wmo:42043:1,2018-01-03T21:30:00Z,28.9818,-94.9186,-2.0,14.6,11111222 
TABS,ioos:station:wmo:42043:1,2018-01-03T22:00:00Z,28.9818,-94.9186,-2.0,14.6,11111222 
TABS,ioos:station:wmo:42043:1,2018-01-03T22:30:00Z,28.9818,-94.9186,-2.0,14.6,11111222 
TABS,ioos:station:wmo:42043:1,2018-01-03T23:00:00Z,28.9818,-94.9186,-2.0,14.6,11111222 
TABS,ioos:station:wmo:42043:1,2018-01-03T23:30:00Z,28.9818,-94.9186,-2.0,14.6,11111222 
TABS,ioos:station:wmo:42043:1,2018-01-04T00:00:00Z,28.9818,-94.9186,-2.0,14.5,11111222 
TABS,ioos:station:wmo:42043:1,2018-01-04T00:30:00Z,28.9818,-94.9186,-2.0,14.5,11111222 
TABS,ioos:station:wmo:42043:1,2018-01-04T01:00:00Z,28.9818,-94.9186,-2.0,14.5,11111222 
TABS,ioos:station:wmo:42043:1,2018-01-04T01:30:00Z,28.9818,-94.9186,-2.0,14.5,11111222 
TABS,ioos:station:wmo:42043:1,2018-01-04T02:00:00Z,28.9818,-94.9186,-2.0,14.5,11111222 
TABS,ioos:station:wmo:42043:1,2018-01-04T02:30:00Z,28.9818,-94.9186,-2.0,14.5,11111222 
TABS,ioos:station:wmo:42043:1,2018-01-04T03:00:00Z,28.9818,-94.9186,-2.0,14.5,11111222 
TABS,ioos:station:wmo:42043:1,2018-01-04T03:30:00Z,28.9818,-94.9186,-2.0,14.4,11111222 
TABS,ioos:station:wmo:42043:1,2018-01-04T04:00:00Z,28.9818,-94.9186,-2.0,14.4,11111222 
TABS,ioos:station:wmo:42043:1,2018-01-04T04:30:00Z,28.9818,-94.9186,-2.0,14.4,11111222 
TABS,ioos:station:wmo:42043:1,2018-01-04T05:00:00Z,28.9818,-94.9186,-2.0,14.4,11111222 
TABS,ioos:station:wmo:42043:1,2018-01-04T05:30:00Z,28.9818,-94.9186,-2.0,14.4,11111222 
TABS,ioos:station:wmo:42043:1,2018-01-04T06:00:00Z,28.9818,-94.9186,-2.0,14.4,11111222 
TABS,ioos:station:wmo:42043:1,2018-01-04T06:30:00Z,28.9818,-94.9186,-2.0,14.3,11111222 
TABS,ioos:station:wmo:42043:1,2018-01-04T07:00:00Z,28.9818,-94.9186,-2.0,14.4,11111222 
TABS,ioos:station:wmo:42043:1,2018-01-04T14:00:00Z,28.9818,-94.9186,-2.0,14.2,11111222 
TABS,ioos:station:wmo:42043:1,2018-01-04T14:30:00Z,28.9818,-94.9186,-2.0,14.2,11111222 
TABS,ioos:station:wmo:42043:1,2018-01-04T15:00:00Z,28.9818,-94.9186,-2.0,14.2,11111222 
TABS,ioos:station:wmo:42043:1,2018-01-04T15:30:00Z,28.9818,-94.9186,-2.0,14.2,11111222 
TABS,ioos:station:wmo:42043:1,2018-01-04T16:00:00Z,28.9818,-94.9186,-2.0,14.2,11111222 
TABS,ioos:station:wmo:42043:1,2018-01-04T16:30:00Z,28.9818,-94.9186,-2.0,14.2,11111222 
TABS,ioos:station:wmo:42043:1,2018-01-04T17:00:00Z,28.9818,-94.9186,-2.0,14.2,11111222 
TABS,ioos:station:wmo:42043:1,2018-01-04T17:30:00Z,28.9818,-94.9186,-2.0,14.2,11111222 
TABS,ioos:station:wmo:42043:1,2018-01-04T18:00:00Z,28.9818,-94.9186,-2.0,14.2,11111222 
TABS,ioos:station:wmo:42043:1,2018-01-04T18:30:00Z,28.9818,-94.9186,-2.0,14.3,11111222 
TABS,ioos:station:wmo:42043:1,2018-01-04T19:00:00Z,28.9818,-94.9186,-2.0,14.3,11111222 
TABS,ioos:station:wmo:42043:1,2018-01-04T19:30:00Z,28.9818,-94.9186,-2.0,14.3,11111222 
TABS,ioos:station:wmo:42043:1,2018-01-04T20:00:00Z,28.9818,-94.9186,-2.0,14.3,11111222 
TABS,ioos:station:wmo:42043:1,2018-01-04T20:30:00Z,28.9818,-94.9186,-2.0,14.4,11111222 
TABS,ioos:station:wmo:42043:1,2018-01-04T21:00:00Z,28.9818,-94.9186,-2.0,14.4,11111222 
TABS,ioos:station:wmo:42043:1,2018-01-04T21:30:00Z,28.9818,-94.9186,-2.0,14.4,11111222 
TABS,ioos:station:wmo:42043:1,2018-01-04T22:00:00Z,28.9818,-94.9186,-2.0,14.3,11111222 
TABS,ioos:station:wmo:42043:1,2018-01-04T22:30:00Z,28.9818,-94.9186,-2.0,14.3,11111222 
TABS,ioos:station:wmo:42043:1,2018-01-04T23:00:00Z,28.9818,-94.9186,-2.0,14.3,11111222 
TABS,ioos:station:wmo:42043:1,2018-01-04T23:30:00Z,28.9818,-94.9186,-2.0,14.3,11111222 
TABS,ioos:station:wmo:42043:1,2018-01-05T00:00:00Z,28.9818,-94.9186,-2.0,14.3,11111222 
TABS,ioos:station:wmo:42043:1,2018-01-05T00:30:00Z,28.9818,-94.9186,-2.0,14.2,11111222 
TABS,ioos:station:wmo:42043:1,2018-01-05T01:00:00Z,28.9818,-94.9186,-2.0,14.2,11111222 
TABS,ioos:station:wmo:42043:1,2018-01-05T01:30:00Z,28.9818,-94.9186,-2.0,14.2,11111222 
TABS,ioos:station:wmo:42043:1,2018-01-05T02:00:00Z,28.9818,-94.9186,-2.0,14.2,11111222 
TABS,ioos:station:wmo:42043:1,2018-01-05T02:30:00Z,28.9818,-94.9186,-2.0,14.2,11111222 
TABS,ioos:station:wmo:42043:1,2018-01-05T03:00:00Z,28.9818,-94.9186,-2.0,14.2,11111222 
TABS,ioos:station:wmo:42043:1,2018-01-05T03:30:00Z,28.9818,-94.9186,-2.0,14.3,11111222 
TABS,ioos:station:wmo:42043:1,2018-01-05T04:00:00Z,28.9818,-94.9186,-2.0,14.2,11111222 
TABS,ioos:station:wmo:42043:1,2018-01-05T04:30:00Z,28.9818,-94.9186,-2.0,14.2,11111222 
TABS,ioos:station:wmo:42043:1,2018-01-05T05:00:00Z,28.9818,-94.9186,-2.0,14.2,11111222 
TABS,ioos:station:wmo:42043:1,2018-01-05T05:30:00Z,28.9818,-94.9186,-2.0,14.2,11111222 
TABS,ioos:station:wmo:42043:1,2018-01-05T06:00:00Z,28.9818,-94.9186,-2.0,14.2,11111222 
TABS,ioos:station:wmo:42043:1,2018-01-05T06:30:00Z,28.9818,-94.9186,-2.0,14.2,11111222 
TABS,ioos:station:wmo:42043:1,2018-01-05T07:00:00Z,28.9818,-94.9186,-2.0,14.2,11111222 
TABS,ioos:station:wmo:42043:1,2018-01-05T07:30:00Z,28.9818,-94.9186,-2.0,14.2,11111222 
TABS,ioos:station:wmo:42043:1,2018-01-05T08:00:00Z,28.9818,-94.9186,-2.0,14.2,11111222 
TABS,ioos:station:wmo:42043:1,2018-01-05T08:30:00Z,28.9818,-94.9186,-2.0,13.9,11111222 
TABS,ioos:station:wmo:42043:1,2018-01-05T09:00:00Z,28.9818,-94.9186,-2.0,13.9,11111222 
TABS,ioos:station:wmo:42043:1,2018-01-05T09:30:00Z,28.9818,-94.9186,-2.0,13.9,11111222 
TABS,ioos:station:wmo:42043:1,2018-01-05T10:00:00Z,28.9818,-94.9186,-2.0,13.9,11111222 
TABS,ioos:station:wmo:42043:1,2018-01-05T10:30:00Z,28.9818,-94.9186,-2.0,13.9,11111222 
TABS,ioos:station:wmo:42043:1,2018-01-05T11:00:00Z,28.9818,-94.9186,-2.0,13.9,11111222 
TABS,ioos:station:wmo:42043:1,2018-01-05T11:30:00Z,28.9818,-94.9186,-2.0,13.8,11111222 
TABS,ioos:station:wmo:42043:1,2018-01-05T12:00:00Z,28.9818,-94.9186,-2.0,13.8,11111222 
TABS,ioos:station:wmo:42043:1,2018-01-05T12:30:00Z,28.9818,-94.9186,-2.0,13.7,11111222 
TABS,ioos:station:wmo:42043:1,2018-01-05T13:00:00Z,28.9818,-94.9186,-2.0,13.6,11111222 
TABS,ioos:station:wmo:42043:1,2018-01-05T13:30:00Z,28.9818,-94.9186,-2.0,13.6,11111222 
TABS,ioos:station:wmo:42043:1,2018-01-05T14:00:00Z,28.9818,-94.9186,-2.0,13.6,11111222 
TABS,ioos:station:wmo:42043:1,2018-01-05T14:30:00Z,28.9818,-94.9186,-2.0,13.6,11111222 
TABS,ioos:station:wmo:42043:1,2018-01-05T15:00:00Z,28.9818,-94.9186,-2.0,13.7,11111222 
TABS,ioos:station:wmo:42043:1,2018-01-05T15:30:00Z,28.9818,-94.9186,-2.0,13.8,11111222 
TABS,ioos:station:wmo:42043:1,2018-01-05T16:00:00Z,28.9818,-94.9186,-2.0,13.8,11111222 
TABS,ioos:station:wmo:42043:1,2018-01-05T16:30:00Z,28.9818,-94.9186,-2.0,13.9,11111222 
TABS,ioos:station:wmo:42043:1,2018-01-05T17:00:00Z,28.9818,-94.9186,-2.0,13.9,11111222 
TABS,ioos:station:wmo:42043:1,2018-01-05T17:30:00Z,28.9818,-94.9186,-2.0,14.0,11111222 
TABS,ioos:station:wmo:42043:1,2018-01-05T18:00:00Z,28.9818,-94.9186,-2.0,14.0,11111222 
TABS,ioos:station:wmo:42043:1,2018-01-05T18:30:00Z,28.9818,-94.9186,-2.0,14.0,11111222 
TABS,ioos:station:wmo:42043:1,2018-01-05T19:00:00Z,28.9818,-94.9186,-2.0,14.1,11111222 
TABS,ioos:station:wmo:42043:1,2018-01-05T19:30:00Z,28.9818,-94.9186,-2.0,14.2,11111222 
TABS,ioos:station:wmo:42043:1,2018-01-05T20:00:00Z,28.9818,-94.9186,-2.0,14.2,11111222 
TABS,ioos:station:wmo:42043:1,2018-01-05T20:30:00Z,28.9818,-94.9186,-2.0,14.2,11111222 
TABS,ioos:station:wmo:42043:1,2018-01-05T21:00:00Z,28.9818,-94.9186,-2.0,14.2,11111222 
TABS,ioos:station:wmo:42043:1,2018-01-05T21:30:00Z,28.9818,-94.9186,-2.0,14.1,11111222 
TABS,ioos:station:wmo:42043:1,2018-01-05T22:00:00Z,28.9818,-94.9186,-2.0,14.1,11111222 
TABS,ioos:station:wmo:42043:1,2018-01-05T22:30:00Z,28.9818,-94.9186,-2.0,14.1,11111222 
TABS,ioos:station:wmo:42043:1,2018-01-05T23:00:00Z,28.9818,-94.9186,-2.0,14.1,11111222 
TABS,ioos:station:wmo:42043:1,2018-01-05T23:30:00Z,28.9818,-94.9186,-2.0,14.1,11111222 
TABS,ioos:station:wmo:42043:1,2018-01-06T00:00:00Z,28.9818,-94.9186,-2.0,14.1,11111222 
TABS,ioos:station:wmo:42043:1,2018-01-06T00:30:00Z,28.9818,-94.9186,-2.0,14.1,11111222 
TABS,ioos:station:wmo:42043:1,2018-01-06T01:00:00Z,28.9818,-94.9186,-2.0,14.1,11111222 
TABS,ioos:station:wmo:42043:1,2018-01-06T01:30:00Z,28.9818,-94.9186,-2.0,14.1,11111222 
TABS,ioos:station:wmo:42043:1,2018-01-06T02:00:00Z,28.9818,-94.9186,-2.0,14.1,11111222 
TABS,ioos:station:wmo:42043:1,2018-01-06T02:30:00Z,28.9818,-94.9186,-2.0,14.1,11111222 
TABS,ioos:station:wmo:42043:1,2018-01-06T03:00:00Z,28.9818,-94.9186,-2.0,14.1,11111222 
TABS,ioos:station:wmo:42043:1,2018-01-06T03:30:00Z,28.9818,-94.9186,-2.0,14.1,11111222 
TABS,ioos:station:wmo:42043:1,2018-01-06T04:00:00Z,28.9818,-94.9186,-2.0,14.1,11111222 
TABS,ioos:station:wmo:42043:1,2018-01-06T04:30:00Z,28.9818,-94.9186,-2.0,14.1,11111222 
TABS,ioos:station:wmo:42043:1,2018-01-06T05:00:00Z,28.9818,-94.9186,-2.0,14.0,11111222 
TABS,ioos:station:wmo:42043:1,2018-01-06T05:30:00Z,28.9818,-94.9186,-2.0,14.0,11111222 
TABS,ioos:station:wmo:42043:1,2018-01-06T06:00:00Z,28.9818,-94.9186,-2.0,14.0,11111222 
TABS,ioos:station:wmo:42043:1,2018-01-06T06:30:00Z,28.9818,-94.9186,-2.0,14.0,11111222 
TABS,ioos:station:wmo:42043:1,2018-01-06T07:00:00Z,28.9818,-94.9186,-2.0,14.0,11111222 
TABS,ioos:station:wmo:42043:1,2018-01-06T07:30:00Z,28.9818,-94.9186,-2.0,14.1,11111222 
TABS,ioos:station:wmo:42043:1,2018-01-06T08:00:00Z,28.9818,-94.9186,-2.0,14.0,11111222 
TABS,ioos:station:wmo:42043:1,2018-01-06T08:30:00Z,28.9818,-94.9186,-2.0,14.1,11111222 
TABS,ioos:station:wmo:42043:1,2018-01-06T09:00:00Z,28.9818,-94.9186,-2.0,14.1,11111222 
TABS,ioos:station:wmo:42043:1,2018-01-06T09:30:00Z,28.9818,-94.9186,-2.0,14.0,11111222 
TABS,ioos:station:wmo:42043:1,2018-01-06T10:00:00Z,28.9818,-94.9186,-2.0,14.0,11111222 
TABS,ioos:station:wmo:42043:1,2018-01-06T10:30:00Z,28.9818,-94.9186,-2.0,13.9,11111222 
TABS,ioos:station:wmo:42043:1,2018-01-06T11:00:00Z,28.9818,-94.9186,-2.0,13.9,11111222 
TABS,ioos:station:wmo:42043:1,2018-01-06T11:30:00Z,28.9818,-94.9186,-2.0,13.9,11111222 
TABS,ioos:station:wmo:42043:1,2018-01-06T12:00:00Z,28.9818,-94.9186,-2.0,13.9,11111222 
TABS,ioos:station:wmo:42043:1,2018-01-06T12:30:00Z,28.9818,-94.9186,-2.0,13.9,11111222 
TABS,ioos:station:wmo:42043:1,2018-01-06T13:30:00Z,28.9818,-94.9186,-2.0,13.9,11111222 
TABS,ioos:station:wmo:42043:1,2018-01-06T14:00:00Z,28.9818,-94.9186,-2.0,13.8,11111222 
TABS,ioos:station:wmo:42043:1,2018-01-06T14:30:00Z,28.9818,-94.9186,-2.0,13.8,11111222 
TABS,ioos:station:wmo:42043:1,2018-01-06T15:00:00Z,28.9818,-94.9186,-2.0,13.8,11111222 
TABS,ioos:station:wmo:42043:1,2018-01-06T15:30:00Z,28.9818,-94.9186,-2.0,13.8,11111222 
TABS,ioos:station:wmo:42043:1,2018-01-06T16:00:00Z,28.9818,-94.9186,-2.0,13.8,11111222 
TABS,ioos:station:wmo:42043:1,2018-01-06T16:30:00Z,28.9818,-94.9186,-2.0,13.8,11111222 
TABS,ioos:station:wmo:42043:1,2018-01-06T17:00:00Z,28.9818,-94.9186,-2.0,13.8,11111222 
TABS,ioos:station:wmo:42043:1,2018-01-06T17:30:00Z,28.9818,-94.9186,-2.0,13.9,11111222 
TABS,ioos:station:wmo:42043:1,2018-01-06T18:00:00Z,28.9818,-94.9186,-2.0,13.9,11111222 
TABS,ioos:station:wmo:42043:1,2018-01-06T18:30:00Z,28.9818,-94.9186,-2.0,14.0,11111222 
TABS,ioos:station:wmo:42043:1,2018-01-06T19:00:00Z,28.9818,-94.9186,-2.0,14.1,11111222 
TABS,ioos:station:wmo:42043:1,2018-01-06T19:30:00Z,28.9818,-94.9186,-2.0,14.2,11111222 
TABS,ioos:station:wmo:42043:1,2018-01-06T20:00:00Z,28.9818,-94.9186,-2.0,14.5,11111222 
TABS,ioos:station:wmo:42043:1,2018-01-06T20:30:00Z,28.9818,-94.9186,-2.0,14.6,11111222 
TABS,ioos:station:wmo:42043:1,2018-01-06T21:00:00Z,28.9818,-94.9186,-2.0,14.7,11111222 
TABS,ioos:station:wmo:42043:1,2018-01-06T21:30:00Z,28.9818,-94.9186,-2.0,14.8,11111222 
TABS,ioos:station:wmo:42043:1,2018-01-06T22:00:00Z,28.9818,-94.9186,-2.0,14.6,11111222 
TABS,ioos:station:wmo:42043:1,2018-01-06T22:30:00Z,28.9818,-94.9186,-2.0,14.6,11111222 
TABS,ioos:station:wmo:42043:1,2018-01-06T23:00:00Z,28.9818,-94.9186,-2.0,14.6,11111222 
TABS,ioos:station:wmo:42043:1,2018-01-06T23:30:00Z,28.9818,-94.9186,-2.0,14.6,11111222 
TABS,ioos:station:wmo:42043:1,2018-01-07T00:00:00Z,28.9818,-94.9186,-2.0,14.6,11111222 
TABS,ioos:station:wmo:42043:1,2018-01-07T00:30:00Z,28.9818,-94.9186,-2.0,14.6,11111222 
TABS,ioos:station:wmo:42043:1,2018-01-07T01:00:00Z,28.9818,-94.9186,-2.0,14.6,11111222 
TABS,ioos:station:wmo:42043:1,2018-01-07T01:30:00Z,28.9818,-94.9186,-2.0,14.5,11111222 
TABS,ioos:station:wmo:42043:1,2018-01-07T02:00:00Z,28.9818,-94.9186,-2.0,14.5,11111222 
TABS,ioos:station:wmo:42043:1,2018-01-07T02:30:00Z,28.9818,-94.9186,-2.0,14.4,11111222 
TABS,ioos:station:wmo:42043:1,2018-01-07T03:00:00Z,28.9818,-94.9186,-2.0,14.4,11111222 
TABS,ioos:station:wmo:42043:1,2018-01-07T03:30:00Z,28.9818,-94.9186,-2.0,14.4,11111222 
TABS,ioos:station:wmo:42043:1,2018-01-07T04:00:00Z,28.9818,-94.9186,-2.0,14.3,11111222 
TABS,ioos:station:wmo:42043:1,2018-01-07T04:30:00Z,28.9818,-94.9186,-2.0,14.1,11111222 
TABS,ioos:station:wmo:42043:1,2018-01-07T05:00:00Z,28.9818,-94.9186,-2.0,14.1,11111222 
TABS,ioos:station:wmo:42043:1,2018-01-07T05:30:00Z,28.9818,-94.9186,-2.0,14.2,11111222 
TABS,ioos:station:wmo:42043:1,2018-01-07T06:00:00Z,28.9818,-94.9186,-2.0,14.2,11111222 
TABS,ioos:station:wmo:42043:1,2018-01-07T06:30:00Z,28.9818,-94.9186,-2.0,14.1,11111222 
TABS,ioos:station:wmo:42043:1,2018-01-07T07:00:00Z,28.9818,-94.9186,-2.0,14.1,11111222 
TABS,ioos:station:wmo:42043:1,2018-01-07T07:30:00Z,28.9818,-94.9186,-2.0,14.1,11111222 
TABS,ioos:station:wmo:42043:1,2018-01-07T08:00:00Z,28.9818,-94.9186,-2.0,14.1,11111222 
TABS,ioos:station:wmo:42043:1,2018-01-07T08:30:00Z,28.9818,-94.9186,-2.0,14.1,11111222 
TABS,ioos:station:wmo:42043:1,2018-01-07T09:00:00Z,28.9818,-94.9186,-2.0,14.0,11111222 
TABS,ioos:station:wmo:42043:1,2018-01-07T09:30:00Z,28.9818,-94.9186,-2.0,14.0,11111222 
TABS,ioos:station:wmo:42043:1,2018-01-07T10:00:00Z,28.9818,-94.9186,-2.0,14.0,11111222 
TABS,ioos:station:wmo:42043:1,2018-01-07T10:30:00Z,28.9818,-94.9186,-2.0,13.9,11111222 
TABS,ioos:station:wmo:42043:1,2018-01-07T11:00:00Z,28.9818,-94.9186,-2.0,13.9,11111222 
TABS,ioos:station:wmo:42043:1,2018-01-07T11:30:00Z,28.9818,-94.9186,-2.0,13.9,11111222 
TABS,ioos:station:wmo:42043:1,2018-01-07T12:00:00Z,28.9818,-94.9186,-2.0,13.8,11111222 
TABS,ioos:station:wmo:42043:1,2018-01-07T12:30:00Z,28.9818,-94.9186,-2.0,13.8,11111222 
TABS,ioos:station:wmo:42043:1,2018-01-07T13:00:00Z,28.9818,-94.9186,-2.0,13.8,11111222 
TABS,ioos:station:wmo:42043:1,2018-01-07T13:30:00Z,28.9818,-94.9186,-2.0,13.8,11111222 
TABS,ioos:station:wmo:42043:1,2018-01-07T14:00:00Z,28.9818,-94.9186,-2.0,13.8,11111222 
TABS,ioos:station:wmo:42043:1,2018-01-07T14:30:00Z,28.9818,-94.9186,-2.0,13.7,11111222 
TABS,ioos:station:wmo:42043:1,2018-01-07T15:00:00Z,28.9818,-94.9186,-2.0,13.7,11111222 
TABS,ioos:station:wmo:42043:1,2018-01-07T15:30:00Z,28.9818,-94.9186,-2.0,13.7,11111222 
TABS,ioos:station:wmo:42043:1,2018-01-07T16:00:00Z,28.9818,-94.9186,-2.0,13.7,11111222 
TABS,ioos:station:wmo:42043:1,2018-01-07T16:30:00Z,28.9818,-94.9186,-2.0,13.7,11111222 
TABS,ioos:station:wmo:42043:1,2018-01-07T17:00:00Z,28.9818,-94.9186,-2.0,13.7,11111222 
TABS,ioos:station:wmo:42043:1,2018-01-07T17:30:00Z,28.9818,-94.9186,-2.0,13.8,11111222 
TABS,ioos:station:wmo:42043:1,2018-01-07T18:00:00Z,28.9818,-94.9186,-2.0,13.9,11111222 
TABS,ioos:station:wmo:42043:1,2018-01-07T18:30:00Z,28.9818,-94.9186,-2.0,14.0,11111222 
TABS,ioos:station:wmo:42043:1,2018-01-07T19:00:00Z,28.9818,-94.9186,-2.0,14.0,11111222 
TABS,ioos:station:wmo:42043:1,2018-01-07T19:30:00Z,28.9818,-94.9186,-2.0,14.1,11111222 
TABS,ioos:station:wmo:42043:1,2018-01-07T20:00:00Z,28.9818,-94.9186,-2.0,14.0,11111222 
TABS,ioos:station:wmo:42043:1,2018-01-07T20:30:00Z,28.9818,-94.9186,-2.0,13.9,11111222 
TABS,ioos:station:wmo:42043:1,2018-01-07T21:00:00Z,28.9818,-94.9186,-2.0,13.8,11111222 
TABS,ioos:station:wmo:42043:1,2018-01-07T21:30:00Z,28.9818,-94.9186,-2.0,13.6,11111222 
TABS,ioos:station:wmo:42043:1,2018-01-07T22:00:00Z,28.9818,-94.9186,-2.0,13.5,11111222 
TABS,ioos:station:wmo:42043:1,2018-01-07T22:30:00Z,28.9818,-94.9186,-2.0,13.4,11111222 
TABS,ioos:station:wmo:42043:1,2018-01-07T23:00:00Z,28.9818,-94.9186,-2.0,13.3,11111222 
TABS,ioos:station:wmo:42043:1,2018-01-07T23:30:00Z,28.9818,-94.9186,-2.0,13.3,11111222 
TABS,ioos:station:wmo:42043:1,2018-01-08T00:00:00Z,28.9818,-94.9186,-2.0,13.2,11111222 
TABS,ioos:station:wmo:42043:1,2018-01-08T00:30:00Z,28.9818,-94.9186,-2.0,13.2,11111222 
TABS,ioos:station:wmo:42043:1,2018-01-08T01:00:00Z,28.9818,-94.9186,-2.0,13.2,11111222 
TABS,ioos:station:wmo:42043:1,2018-01-08T01:30:00Z,28.9818,-94.9186,-2.0,13.2,11111222 
TABS,ioos:station:wmo:42043:1,2018-01-08T02:00:00Z,28.9818,-94.9186,-2.0,13.2,11111222 
TABS,ioos:station:wmo:42043:1,2018-01-08T02:30:00Z,28.9818,-94.9186,-2.0,13.4,11111222 
TABS,ioos:station:wmo:42043:1,2018-01-08T03:00:00Z,28.9818,-94.9186,-2.0,13.4,11111222 
TABS,ioos:station:wmo:42043:1,2018-01-08T03:30:00Z,28.9818,-94.9186,-2.0,13.2,11111222 
TABS,ioos:station:wmo:42043:1,2018-01-08T04:00:00Z,28.9818,-94.9186,-2.0,13.2,11111222 
TABS,ioos:station:wmo:42043:1,2018-01-08T04:30:00Z,28.9818,-94.9186,-2.0,13.2,11111222 
TABS,ioos:station:wmo:42043:1,2018-01-08T05:00:00Z,28.9818,-94.9186,-2.0,13.1,11111222 
TABS,ioos:station:wmo:42043:1,2018-01-08T05:30:00Z,28.9818,-94.9186,-2.0,13.1,11111222 
TABS,ioos:station:wmo:42043:1,2018-01-08T06:00:00Z,28.9818,-94.9186,-2.0,13.1,11111222 
TABS,ioos:station:wmo:42043:1,2018-01-08T06:30:00Z,28.9818,-94.9186,-2.0,13.1,11111222 
TABS,ioos:station:wmo:42043:1,2018-01-08T07:00:00Z,28.9818,-94.9186,-2.0,13.0,11111222 
TABS,ioos:station:wmo:42043:1,2018-01-08T07:30:00Z,28.9818,-94.9186,-2.0,13.0,11111222 
TABS,ioos:station:wmo:42043:1,2018-01-08T08:00:00Z,28.9818,-94.9186,-2.0,12.9,11111222 
TABS,ioos:station:wmo:42043:1,2018-01-08T08:30:00Z,28.9818,-94.9186,-2.0,12.8,11111222 
TABS,ioos:station:wmo:42043:1,2018-01-08T09:00:00Z,28.9818,-94.9186,-2.0,12.8,11111222 
TABS,ioos:station:wmo:42043:1,2018-01-08T09:30:00Z,28.9818,-94.9186,-2.0,12.8,11111222 
TABS,ioos:station:wmo:42043:1,2018-01-08T10:00:00Z,28.9818,-94.9186,-2.0,12.7,11111222 
TABS,ioos:station:wmo:42043:1,2018-01-08T10:30:00Z,28.9818,-94.9186,-2.0,12.7,11111222 
TABS,ioos:station:wmo:42043:1,2018-01-08T11:00:00Z,28.9818,-94.9186,-2.0,12.7,11111222 
TABS,ioos:station:wmo:42043:1,2018-01-08T11:30:00Z,28.9818,-94.9186,-2.0,12.7,11111222 
TABS,ioos:station:wmo:42043:1,2018-01-08T12:00:00Z,28.9818,-94.9186,-2.0,12.6,11111222 
TABS,ioos:station:wmo:42043:1,2018-01-08T12:30:00Z,28.9818,-94.9186,-2.0,12.5,11111222 
TABS,ioos:station:wmo:42043:1,2018-01-08T13:00:00Z,28.9818,-94.9186,-2.0,12.4,11111222 
TABS,ioos:station:wmo:42043:1,2018-01-08T13:30:00Z,28.9818,-94.9186,-2.0,12.3,11111222 
TABS,ioos:station:wmo:42043:1,2018-01-08T14:00:00Z,28.9818,-94.9186,-2.0,12.3,11111222 
TABS,ioos:station:wmo:42043:1,2018-01-08T14:30:00Z,28.9818,-94.9186,-2.0,12.1,11111222 
TABS,ioos:station:wmo:42043:1,2018-01-08T15:00:00Z,28.9818,-94.9186,-2.0,12.1,11111222 
TABS,ioos:station:wmo:42043:1,2018-01-08T15:30:00Z,28.9818,-94.9186,-2.0,12.2,11111222 
TABS,ioos:station:wmo:42043:1,2018-01-08T16:00:00Z,28.9818,-94.9186,-2.0,12.2,11111222 
TABS,ioos:station:wmo:42043:1,2018-01-08T16:30:00Z,28.9818,-94.9186,-2.0,12.2,11111222 
TABS,ioos:station:wmo:42043:1,2018-01-08T17:00:00Z,28.9818,-94.9186,-2.0,12.3,11111222 
TABS,ioos:station:wmo:42043:1,2018-01-08T17:30:00Z,28.9818,-94.9186,-2.0,12.3,11111222 
TABS,ioos:station:wmo:42043:1,2018-01-08T18:00:00Z,28.9818,-94.9186,-2.0,11.9,11111222 
TABS,ioos:station:wmo:42043:1,2018-01-08T18:30:00Z,28.9818,-94.9186,-2.0,12.1,11111222 
TABS,ioos:station:wmo:42043:1,2018-01-08T19:00:00Z,28.9818,-94.9186,-2.0,12.4,11111222 
TABS,ioos:station:wmo:42043:1,2018-01-08T19:30:00Z,28.9818,-94.9186,-2.0,12.7,11111222 
TABS,ioos:station:wmo:42043:1,2018-01-08T20:00:00Z,28.9818,-94.9186,-2.0,13.0,11111222 
TABS,ioos:station:wmo:42043:1,2018-01-08T20:30:00Z,28.9818,-94.9186,-2.0,13.1,11111222 
TABS,ioos:station:wmo:42043:1,2018-01-08T21:00:00Z,28.9818,-94.9186,-2.0,13.2,11111222 
TABS,ioos:station:wmo:42043:1,2018-01-08T23:00:00Z,28.9818,-94.9186,-2.0,13.3,11111222 
TABS,ioos:station:wmo:42043:1,2018-01-08T23:30:00Z,28.9818,-94.9186,-2.0,13.3,11111222 
TABS,ioos:station:wmo:42043:1,2018-01-09T00:00:00Z,28.9818,-94.9186,-2.0,13.3,11111222 
TABS,ioos:station:wmo:42043:1,2018-01-09T00:30:00Z,28.9818,-94.9186,-2.0,13.3,11111222 
TABS,ioos:station:wmo:42043:1,2018-01-09T01:00:00Z,28.9818,-94.9186,-2.0,13.3,11111222 
TABS,ioos:station:wmo:42043:1,2018-01-09T01:30:00Z,28.9818,-94.9186,-2.0,13.3,11111222 
TABS,ioos:station:wmo:42043:1,2018-01-09T02:00:00Z,28.9818,-94.9186,-2.0,13.4,11111222 
TABS,ioos:station:wmo:42043:1,2018-01-09T02:30:00Z,28.9818,-94.9186,-2.0,13.5,11111222 
TABS,ioos:station:wmo:42043:1,2018-01-09T03:00:00Z,28.9818,-94.9186,-2.0,13.4,11111222 
TABS,ioos:station:wmo:42043:1,2018-01-09T03:30:00Z,28.9818,-94.9186,-2.0,13.4,11111222 
TABS,ioos:station:wmo:42043:1,2018-01-09T04:00:00Z,28.9818,-94.9186,-2.0,13.4,11111222 
TABS,ioos:station:wmo:42043:1,2018-01-09T04:30:00Z,28.9818,-94.9186,-2.0,13.4,11111222 
TABS,ioos:station:wmo:42043:1,2018-01-09T05:00:00Z,28.9818,-94.9186,-2.0,13.4,11111222 
TABS,ioos:station:wmo:42043:1,2018-01-09T05:30:00Z,28.9818,-94.9186,-2.0,13.4,11111222 
TABS,ioos:station:wmo:42043:1,2018-01-09T06:00:00Z,28.9818,-94.9186,-2.0,13.4,11111222 
TABS,ioos:station:wmo:42043:1,2018-01-09T06:30:00Z,28.9818,-94.9186,-2.0,13.4,11111222 